Date String (YYYY-MM-DD hh:mm:ss) UTC,Instrument flags,Ambient pressure (hPa),Sample flow (lpm),Bypass flow (lpm),Sample temperature (°C),Ambient temperature (°C),ASC tube jacket temperature (°C),LED temperature (°C),Box temperature (°C),Sample RH (%),Span deviation,Mass concentration (μg/m³),Mass concentration (μg/m³),Mass concentration (μg/m³)
DateTimeUTC,F1_M11,P_M11,Q1_M11,Q2_M11,T1_M11,T2_M11,T3_M11,T4_M11,T5_M11,U1_M11,ZSPAN_M11,X2_M11,X0_M11,X1_M11
2021-10-24 00:00:00,,0816.4,5.01,0.00,30.4,29.6,00.0,39.3,32.1,10.4,0004.6,0010.18,0040.17,0007.04
2021-10-24 00:01:00,,0816.5,4.99,0.00,30.4,29.6,00.0,39.4,32.1,10.4,0003.9,0010.22,0041.17,0007.06
2021-10-24 00:02:00,,0816.5,5.02,0.00,30.4,29.6,00.0,39.4,32.1,10.4,0003.4,0010.25,0039.20,0007.09
2021-10-24 00:03:00,,0816.4,4.99,0.00,30.4,29.6,00.0,39.4,32.1,10.6,0002.8,0010.33,0038.67,0007.13
2021-10-24 00:04:00,,0816.4,5.00,0.00,30.4,29.2,00.0,39.4,32.0,10.6,0002.1,0010.38,0037.88,0007.17
2021-10-24 00:05:00,,0816.5,4.99,0.00,30.3,27.0,00.0,39.3,31.6,10.6,0002.2,0010.42,0036.32,0007.21
2021-10-24 00:06:00,,0816.4,4.99,0.00,30.1,26.4,00.0,39.3,31.4,10.7,0003.6,0010.41,0036.02,0007.24
2021-10-24 00:07:00,,0816.4,5.01,0.00,30.0,26.7,00.0,39.3,31.4,10.8,0002.2,0010.41,0034.72,0007.26
2021-10-24 00:08:00,,0816.4,5.01,0.00,30.0,27.1,00.0,39.2,31.4,10.9,0000.7,0010.40,0035.46,0007.28
2021-10-24 00:09:00,,0816.5,4.99,0.00,29.9,27.5,00.0,39.2,31.4,10.8,0000.6,0010.38,0034.93,0007.30
2021-10-24 00:10:00,,0816.5,4.99,0.00,29.9,27.8,00.0,39.1,31.5,10.8,0001.6,0010.45,0034.95,0007.34
2021-10-24 00:11:00,,0816.5,5.01,0.00,29.9,28.1,00.0,39.1,31.5,10.6,0002.2,0010.50,0033.78,0007.37
2021-10-24 00:12:00,,0816.6,4.98,0.00,29.9,28.3,00.0,39.1,31.6,10.7,0002.3,0010.56,0032.10,0007.40
2021-10-24 00:13:00,,0816.8,5.01,0.00,29.9,28.5,00.0,39.1,31.6,10.7,0002.9,0010.57,0032.09,0007.42
2021-10-24 00:14:00,,0816.8,5.00,0.00,29.9,28.6,00.0,39.1,31.7,10.7,0002.8,0010.61,0033.70,0007.44
2021-10-24 00:15:00,,0816.6,5.00,0.00,30.0,28.7,00.0,39.1,31.7,10.7,0003.5,0010.62,0034.54,0007.42
2021-10-24 00:16:00,,0816.6,5.00,0.00,30.0,28.8,00.0,39.1,31.7,10.6,0004.1,0010.61,0035.21,0007.42
2021-10-24 00:17:00,,0816.6,5.00,0.00,30.0,28.9,00.0,39.1,31.8,10.5,0003.2,0010.63,0034.85,0007.44
2021-10-24 00:18:00,,0816.7,4.99,0.00,30.0,29.0,00.0,39.1,31.8,10.5,0003.0,0010.65,0034.31,0007.47
2021-10-24 00:19:00,,0816.8,5.01,0.00,30.0,29.0,00.0,39.1,31.8,10.6,0002.9,0010.68,0032.56,0007.49
2021-10-24 00:20:00,,0816.6,5.00,0.00,30.1,29.1,00.0,39.1,31.8,10.7,0002.4,0010.77,0033.22,0007.54
2021-10-24 00:21:00,,0816.7,5.01,0.00,30.1,29.1,00.0,39.1,31.9,10.7,0002.3,0010.82,0034.43,0007.57
2021-10-24 00:22:00,,0816.7,5.00,0.00,30.1,29.2,00.0,39.1,31.8,10.7,0002.5,0010.91,0036.02,0007.60
2021-10-24 00:23:00,,0816.5,4.99,0.00,30.1,29.2,00.0,39.1,31.9,10.8,0003.2,0010.88,0036.88,0007.61
2021-10-24 00:24:00,,0816.5,5.00,0.00,30.1,29.2,00.0,39.1,31.9,10.7,0003.5,0010.90,0037.77,0007.64
2021-10-24 00:25:00,,0816.5,4.98,0.00,30.1,29.2,00.0,39.1,31.9,10.7,0003.5,0010.83,0037.92,0007.67
2021-10-24 00:26:00,,0816.5,5.00,0.00,30.1,29.3,00.0,39.1,31.9,10.6,0003.1,0010.86,0037.70,0007.71
2021-10-24 00:27:00,,0816.6,5.00,0.00,30.1,29.3,00.0,39.2,31.9,10.5,0003.0,0010.89,0037.08,0007.70
2021-10-24 00:28:00,,0816.6,5.01,0.00,30.2,29.3,00.0,39.2,31.9,10.7,0003.3,0010.90,0037.22,0007.70
2021-10-24 00:29:00,,0816.7,5.00,0.00,30.2,29.3,00.0,39.2,32.0,10.7,0003.5,0010.91,0037.30,0007.70
2021-10-24 00:30:00,,0816.6,4.99,0.00,30.2,29.4,00.0,39.2,32.0,10.3,0003.7,0010.87,0037.84,0007.68
2021-10-24 00:31:00,,0816.6,5.02,0.00,30.2,29.4,00.0,39.2,32.0,09.9,0003.8,0010.65,0036.81,0007.60
2021-10-24 00:32:00,,0816.9,4.99,0.00,30.2,29.4,00.0,39.2,32.0,10.0,0004.1,0010.48,0037.27,0007.50
2021-10-24 00:33:00,,0816.8,5.00,0.00,30.2,29.4,00.0,39.2,32.0,10.1,0003.4,0010.46,0038.51,0007.43
2021-10-24 00:34:00,,0816.7,5.00,0.00,30.3,29.4,00.0,39.3,32.0,10.2,0001.3,0010.53,0039.43,0007.38
2021-10-24 00:35:00,,0816.7,5.02,0.00,30.3,29.5,00.0,39.3,32.0,09.9,0002.7,0010.45,0038.40,0007.33
2021-10-24 00:36:00,,0816.8,5.01,0.00,30.3,29.5,00.0,39.3,32.0,09.5,0002.6,0010.28,0036.98,0007.20
2021-10-24 00:37:00,,0816.8,5.00,0.00,30.3,29.5,00.0,39.3,32.0,09.1,0001.5,0009.89,0037.06,0006.95
2021-10-24 00:38:00,,0816.6,5.01,0.00,30.3,29.5,00.0,39.3,32.0,09.5,0001.3,0009.64,0037.82,0006.81
2021-10-24 00:39:00,,0816.6,5.00,0.00,30.3,29.5,00.0,39.3,32.1,09.4,0002.6,0009.44,0037.68,0006.64
2021-10-24 00:40:00,,0816.7,5.01,0.00,30.3,29.5,00.0,39.3,32.1,09.6,0002.9,0009.23,0036.34,0006.48
2021-10-24 00:41:00,,0816.5,5.00,0.00,30.3,29.5,00.0,39.3,32.0,09.5,0003.1,0009.01,0034.87,0006.31
2021-10-24 00:42:00,,0816.5,5.00,0.00,30.3,29.5,00.0,39.3,32.1,09.5,0002.9,0008.83,0034.62,0006.15
2021-10-24 00:43:00,,0816.7,4.99,0.00,30.3,29.5,00.0,39.4,32.1,09.5,0000.0,0008.58,0031.81,0005.96
2021-10-24 00:44:00,,0816.9,5.00,0.00,30.4,29.6,00.0,39.4,32.1,09.5,0000.0,0008.16,0028.46,0005.74
2021-10-24 00:45:00,,0816.7,5.01,0.00,30.4,29.6,00.0,39.4,32.1,09.5,0000.0,0007.67,0026.52,0005.44
2021-10-24 00:46:00,,0816.5,4.99,0.00,30.4,29.6,00.0,39.4,32.1,09.6,0000.0,0007.24,0026.08,0005.11
2021-10-24 00:47:00,,0816.7,4.99,0.00,30.4,29.6,00.0,39.4,32.1,09.6,0000.0,0006.99,0024.66,0004.90
2021-10-24 00:48:00,,0816.8,4.99,0.00,30.4,29.6,00.0,39.4,32.2,09.6,0000.0,0006.87,0024.78,0004.82
2021-10-24 00:49:00,,0816.5,5.00,0.00,30.4,29.6,00.0,39.4,32.2,09.5,0000.0,0006.62,0023.11,0004.64
2021-10-24 00:50:00,,0816.5,5.00,0.00,30.4,29.6,00.0,39.4,32.2,09.4,0000.0,0006.34,0021.95,0004.47
2021-10-24 00:51:00,,0816.5,5.01,0.00,30.4,29.6,00.0,39.4,32.1,09.2,0000.0,0006.06,0021.84,0004.30
2021-10-24 00:52:00,,0816.5,5.01,0.00,30.4,29.6,00.0,39.4,32.2,09.2,0000.0,0005.88,0021.30,0004.16
2021-10-24 00:53:00,,0816.5,5.01,0.00,30.4,29.6,00.0,39.5,32.2,09.2,0000.0,0005.72,0020.13,0004.03
2021-10-24 00:54:00,,0816.6,4.99,0.00,30.4,28.4,00.0,39.4,32.0,09.3,0000.0,0005.60,0020.03,0003.96
2021-10-24 00:55:00,,0816.4,5.00,0.00,30.3,26.6,00.0,39.4,31.6,09.3,0000.0,0005.46,0020.34,0003.86
2021-10-24 00:56:00,,0816.5,5.00,0.00,30.2,26.5,00.0,39.4,31.4,09.3,0000.0,0005.39,0020.44,0003.83
2021-10-24 00:57:00,,0816.5,5.01,0.00,30.0,26.8,00.0,39.3,31.4,09.5,0000.0,0005.32,0020.04,0003.81
2021-10-24 00:58:00,,0816.5,5.00,0.00,30.0,27.3,00.0,39.2,31.4,09.6,0000.0,0005.35,0020.90,0003.80
2021-10-24 00:59:00,,0816.5,4.98,0.00,29.9,27.6,00.0,39.2,31.4,09.6,0000.0,0005.38,0019.94,0003.78
